283  
ASUS41 KPHI 251311  
RWRPHI  
 
REGIONAL WEATHER ROUNDUP  
NATIONAL WEATHER SERVICE MOUNT HOLLY NJ  
800 AM EST SAT FEB 25 2017  
 
NOTE: "FAIR" INDICATES FEW OR NO CLOUDS BELOW 12,000 FEET WITH NO  
SIGNIFICANT WEATHER AND/OR S TO VISIBILITY
.  
 
* = STATION DOES NOT REPORT PRECIPITATION (E.G. RAIN, SNOW, ETC.)  
OR FOG.
 
 
NJZ015>026-251400-  
SOUTHERN NEW JERSEY  
 
CITY SKY/WX TMP DP RH WIND PRES REMARKS
 
POMONA CLOUDY 53 52 96 VRB6 29.77S  
WILDWOOD* PTSUNNY 53 53 100 S10 29.77F  
MILLVILLE SUNNY 58 57 97 VRB5 29.75F  
WRIGHTSTOWN MOSUNNY 58 56 93 S8 29.73F  
MOUNT HOLLY MOSUNNY 57 55 93 S3 29.74F  
TRENTON MOSUNNY 57 56 96 S9 29.73F  
 

 
NJZ001>014-251400-  
NORTHERN NEW JERSEY  
 
CITY SKY/WX TMP DP RH WIND PRES REMARKS
 
SUSSEX CLOUDY 61 56 83 VRB6 29.72F  
ANDOVER* N/A 59 54 83 VRB7 29.71F  
MORRISTOWN PTSUNNY 57 55 94 SE6 29.75F  
NEWARK FOG 50 50 100 E5 29.76F VSB 1/2  
TETERBORO PTSUNNY 54 52 93 SE9 29.75F FOG  
CALDWELL CLOUDY 58 54 86 S7 29.75F  
ALLAIRE* FOG 51 51 100 S7 29.78F VSB 1/2  
TOMS RIVER* PTSUNNY 55 54 96 S9 29.77F  
 

 
PAZ043-044-047-054-055-060>062-066>071-251400-  
EASTERN PENNSYLVANIA  
 
CITY SKY/WX TMP DP RH WIND PRES REMARKS
 
PHILADELPHIA PTSUNNY 59 55 87 SE6 29.73F  
NORTH PHILA MOSUNNY 57 56 96 SE5 29.75F  
BLUE BELL* SUNNY 59 55 88 S8 29.71F  
DOYLESTOWN MOSUNNY 57 57 100 S8 29.71F  
QUAKERTOWN* CLOUDY 59 57 94 S6 29.71F  
PERKASIE* FAIR 59 57 94 S6 29.72F  
POTTSTOWN MOSUNNY 59 56 89 VRB6 29.72F  
LANCASTER CLOUDY 62 59 90 S12G17 29.66F  
COATESVILLE CLOUDY 57 57 100 VRB7 29.71F FOG  
READING PTSUNNY 63 58 83 S15G21 29.67S  
ALLENTOWN CLOUDY 63 56 78 S13 29.69F  
MOUNT POCONO CLOUDY 54 54 100 S10 29.70S FOG  
HAZLETON CLOUDY 57 55 94 SE5 29.69F  
LEHIGHTON CLOUDY 61 55 82 S8 29.69F  
WILKES BARRE MOSUNNY 61 56 83 S8G16 29.63F  
 

 
DEZALL-MDZ008-012-015-019-020-251400-  
DELAWARE AND EASTERN MARYLAND  
 
CITY SKY/WX TMP DP RH WIND PRES REMARKS
 
WILMINGTON FOG 52 52 100 SE7 29.73F VSB 1/4  
DOVER MOSUNNY 57 57 99 S8 29.72F  
GEORGETOWN SUNNY 58 56 93 S7 29.76S  
EASTON SUNNY 63 57 82 S12 29.76F  
ABERDEEN SUNNY 56 56 99 CALM 29.70F  
PATUXENT MOSUNNY 61 58 90 S8 29.72F  
OCEAN CITY FOG 52 51 97 SW5 29.78S VSB 1  
WALLOPS ISLAND PTSUNNY 53 53 100 S3 29.77F FOG  
CAMBRIDGE SUNNY 59 57 94 S8 29.73F  
SALISBURY SUNNY 57 57 100 S7 29.75F  
 

 
PAZ001-021-NYZ056-072-MDZ011-DCZ001-251400-  
OTHER NEARBY LOCATIONS  
 
CITY SKY/WX TMP DP RH WIND PRES REMARKS
 
HARRISBURG CLOUDY 61 57 87 SE10 29.63F  
STATE COLLEGE PTSUNNY 59 54 82 SW6 29.57F  
WILLIAMSPORT CLOUDY 63 56 78 S23G35 29.55F  
BINGHAMTON CLOUDY 59 53 80 S13G23 29.58F  
NEW YORK CITY CLOUDY 51 50 96 S5 29.79F FOG  
BALTIMORE PTSUNNY 57 57 100 SE6 29.68S  
WASHINGTON DC PTSUNNY 62 58 86 S13 29.68F  
 

 
 
 
CLICK HERE TO GO TO PREVIOUS BULLETINS.

The Nexlab PA Page
The Nexlab NJ Page
The Nexlab DE Page
The Nexlab MD Page Main Text Page